Worland, WY

9:54 PM MST on February 23, 2018 (GMT -0700)
Worland Municipal

Weather History for KWRL - February, 2014

Change the Weather History Date:

Monday, February 3, 2014

  Actual Average Record
Temperature  
Mean Temperature 3 °F 20 °F  
Max Temperature 17 °F 33 °F 59 °F (2005)
Min Temperature -11 °F 6 °F -36 °F (1996)
Degree Days  
Heating Degree Days 62 45  
Month to date heating degree days 188 137  
Since 1 July heating degree days 5097 4985  
Cooling Degree Days 0 0  
Month to date cooling degree days 0 0  
Year to date cooling degree days 0 0  
Moisture  
Dew Point -2 °F    
Average Humidity 78    
Maximum Humidity 90    
Minimum Humidity 66    
Precipitation  
Precipitation T in 0.01 in 0.15 in (1977)
Month to date precipitation 0.01 0.02  
Year to date precipitation 0.26 0.25  
Sea Level Pressure  
Sea Level Pressure 30.17 in    
Wind  
Wind Speed 7 mph (North)    
Max Wind Speed 15 mph    
Max Gust Speed 18 mph    
Visibility 10 miles    
Events Snow    
T = Trace of Precipitation, MM = Missing Value Source: NWS Daily Summary

Daily Weather History Graph

Daily Weather History Graph

Search for Another Location

Airport or City:

Trip Planner

Search our weather history database for the weather conditions in past years. The results will help you decide how hot, cold, wet, or windy it might be!

Date:

Astronomy

Feb. 03, 2014 Rise Set
Actual Time 7:26 AM MST 5:25 PM MST
Civil Twilight 6:56 AM MST 5:55 PM MST
Nautical Twilight 6:21 AM MST 6:30 PM MST
Astronomical Twilight 5:48 AM MST 7:03 PM MST
Moon 9:20 AM MST (2/3) 10:30 PM MST (2/3)
Length of Visible Light 10h 59m
Length of Day
9h 58m
Waxing Crescent, 20% of the Moon is Illuminated
Feb 3
Waxing Crescent
Feb 6
First Quarter
Feb 14
Full
Feb 22
Last Quarter
Mar 1
New

Hourly Weather History & Observations

Time (MST) Temp. Windchill Dew Point Humidity Pressure Visibility Wind Dir Wind Speed Gust Speed Precip Events Conditions
12:53 AM -0.9 °F -14.1 °F -5.1 °F 83% 30.12 in 10.0 mi SSE 6.9 mph - N/A   Clear
1:53 AM -2.0 °F -13.9 °F -6.0 °F 83% 30.12 in 10.0 mi SSW 5.8 mph - N/A   Scattered Clouds
2:53 AM -2.9 °F -15.0 °F -7.1 °F 82% 30.12 in 10.0 mi South 5.8 mph - N/A   Mostly Cloudy
3:53 AM -7.1 °F -15.9 °F -11.0 °F 83% 30.14 in 10.0 mi West 3.5 mph - N/A   Clear
4:53 AM -11.0 °F - -14.1 °F 86% 30.16 in 10.0 mi Calm Calm - N/A   Partly Cloudy
5:53 AM -7.1 °F - -11.9 °F 79% 30.15 in 10.0 mi Calm Calm - N/A   Clear
6:53 AM -8.0 °F -25.0 °F -11.0 °F 86% 30.19 in 10.0 mi South 9.2 mph - N/A   Clear
7:53 AM -7.1 °F - -11.0 °F 83% 30.19 in 10.0 mi Calm Calm - N/A   Clear
8:53 AM -7.1 °F - -9.0 °F 91% 30.22 in 10.0 mi Calm Calm - N/A   Scattered Clouds
9:53 AM 3.9 °F -5.3 °F -0.9 °F 80% 30.19 in 9.0 mi North 4.6 mph - 0.00 in Snow Light Snow
10:53 AM 5.0 °F - -2.0 °F 73% 30.17 in 10.0 mi Calm Calm - 0.00 in   Clear
11:53 AM 10.0 °F -2.9 °F 1.9 °F 70% 30.18 in 10.0 mi NNW 9.2 mph - 0.00 in   Clear
12:53 PM 10.9 °F -0.8 °F 3.9 °F 73% 30.15 in 10.0 mi NE 8.1 mph - N/A   Clear
1:53 PM 12.9 °F 1.6 °F 6.1 °F 74% 30.13 in 10.0 mi ENE 8.1 mph - N/A   Clear
2:53 PM 16.0 °F 8.8 °F 7.0 °F 68% 30.12 in 10.0 mi East 4.6 mph - N/A   Partly Cloudy
3:53 PM 14.0 °F 3.9 °F 6.1 °F 71% 30.15 in 10.0 mi South 6.9 mph - N/A   Mostly Cloudy
4:53 PM 9.0 °F 0.6 °F 3.0 °F 77% 30.19 in 10.0 mi SSW 4.6 mph - N/A   Clear
5:35 PM 10.9 °F 4.7 °F 3.9 °F 73% 29.90 in 10.0 mi NNE 3.5 mph - N/A   Mostly Cloudy
5:53 PM 12.9 °F 2.6 °F 6.1 °F 74% 30.17 in 10.0 mi North 6.9 mph - N/A   Overcast
6:53 PM 10.0 °F -0.9 °F 3.0 °F 73% 30.21 in 10.0 mi North 6.9 mph - N/A   Mostly Cloudy
7:53 PM 9.0 °F -5.9 °F 3.0 °F 77% 30.25 in 10.0 mi North 11.5 mph - N/A   Overcast
8:18 PM 9.0 °F -5.9 °F 1.9 °F 73% 29.98 in 10.0 mi North 11.5 mph - N/A   Overcast
8:53 PM 8.1 °F -8.4 °F 1.0 °F 73% 30.27 in 8.0 mi North 13.8 mph - 0.00 in Snow Light Snow
9:53 PM 7.0 °F -9.8 °F -0.0 °F 73% 30.27 in 7.0 mi NNW 13.8 mph - 0.00 in Snow Light Snow
10:53 PM 6.1 °F -10.9 °F -0.9 °F 73% 30.29 in 10.0 mi NNW 13.8 mph - 0.00 in Snow Light Snow
11:53 PM 5.0 °F -11.6 °F -2.0 °F 73% 30.29 in 10.0 mi NNW 12.7 mph - 0.00 in   Overcast